Location: Angwan Shehu
(11.2514°N, 7.4613°E)
Time: 04:05:16
(UTC+00:00)

Cosmos 2278 - Pass Details

Date: 14 November 2019
Orbit: 838 x 855 km, 71.1° (Epoch: 05 December)

Event Time Altitude Azimuth Distance (km) Brightness Sun altitude
Rises 17:35:42 0° 204° (SSW) 3,381 7.5 -8.4°
Reaches altitude 10° 17:38:10 10° 208° (SSW) 2,449 6.8 -9.0°
Maximum altitude 17:43:41 58° 286° (WNW) 978 4.4 -10.3°
Drops below altitude 10° 17:49:13 10° 5° (N) 2,459 5.9 -11.6°
Sets 17:51:43 0° 9° (N) 3,396 6.6 -12.2°
